Simultaneous Nadir Overpasses (SNOs) Predictions

Prediction of SNOs between GOES-17 and AQUA Satellite Orbit:

Table of predicted SNOs for the next 14.0 days since TLE Epoch: 1/14/2023
Index Date Time (GOES-17) GOES-17 Lat,Lon AQUA Lat,Lon Distance(km) Time Diff (sec)
1 01/15/2023 10:54:46 0.00,-137.28 0.02,-137.40 12.88 80
2 01/17/2023 10:39:00 0.00,-137.25 -0.64,-134.20 347.23 80
3 01/17/2023 23:00:09 -0.00,-137.24 -0.42,-139.33 236.83 80
4 01/19/2023 22:49:41 -0.01,-137.20 0.24,-136.13 122.43 80
5 01/20/2023 11:10:42 0.01,-137.19 0.85,-141.22 457.89 80
6 01/21/2023 22:36:32 -0.01,-137.15 0.89,-132.92 481.29 80
7 01/22/2023 10:57:33 0.01,-137.14 0.20,-138.01 99.06 80
8 01/24/2023 10:41:44 0.01,-137.09 -0.50,-134.81 259.84 80
9 01/24/2023 23:02:52 -0.01,-137.07 -0.63,-139.92 324.45 80
10 01/26/2023 22:52:22 -0.01,-137.02 0.07,-136.72 34.72 80
